Latest Weather Observations for Kowanyama

IDQ60801

Issued at 5:05 pm EST Friday 31 October 2014 (issued every 30 minutes, with the page automatically refreshed every 10 minutes)

About weather observations | Map of weather stations | Latest weather observations for QLD | Other Formats
Station Details ID: 029038 Name: KOWANYAMA AIRPORT Lat: -15.48 Lon: 141.75 Height: 9.6 m
Data from the previous 72 hours. | See also: Recent months at Kowanyama
Date/Time
EST
Temp
°C
App
Temp
°C
Dew
Point
Rel
Hum
%
Delta-T
°C
Wind Press
QNH
hPa
Press
MSL
hPa
Rain
since 9 am
mm
Dir
 
Spd
km/h
Gust
km/h
Spd
kts
Gust
kts
31/05:00pm 31.4 31.2 19.4 49 7.9 WSW 19 24 10 13 1007.0 1006.9 0.0
31/04:30pm 32.8 33.1 19.6 45 8.7 W 17 20 9 11 1007.0 1006.9 0.0
31/04:00pm 33.9 33.4 19.2 42 9.7 SW 20 26 11 14 1007.0 1006.9 0.0
31/03:30pm 33.6 33.2 18.9 41 9.6 WSW 19 26 10 14 1007.1 1007.0 0.0
31/03:00pm 36.6 35.8 14.0 26 14.0 NE 11 19 6 10 1007.3 1007.2 0.0
31/02:30pm 36.5 35.3 13.9 26 13.9 ESE 13 19 7 10 1007.6 1007.5 0.0
31/02:00pm 36.3 35.6 14.3 27 13.6 ESE 11 17 6 9 1008.0 1007.9 0.0
31/01:30pm 35.4 34.0 13.5 26 13.4 ESE 13 20 7 11 1008.7 1008.6 0.0
31/01:00pm 35.6 34.9 15.3 29 12.7 E 13 19 7 10 1009.3 1009.2 0.0
31/12:30pm 34.7 32.4 14.6 30 12.4 SE 20 26 11 14 1010.0 1009.9 0.0
31/12:00pm 33.4 32.9 14.9 32 11.4 E 11 17 6 9 1010.7 1010.6 0.0
31/11:30am 31.9 31.5 14.1 34 10.8 NNE 9 17 5 9 1011.3 1011.2 0.0
31/11:00am 32.0 31.6 15.1 36 10.4 ESE 11 20 6 11 1011.8 1011.7 0.0
31/10:30am 31.1 31.2 15.5 39 9.7 ESE 9 17 5 9 1012.3 1012.2 0.0
31/10:00am 30.2 30.5 16.9 44 8.4 ENE 11 19 6 10 1012.6 1012.5 0.0
31/09:30am 29.4 28.5 16.9 47 7.9 NE 17 26 9 14 1012.7 1012.6 0.0
31/09:00am 28.3 28.1 17.5 52 6.8 NE 15 24 8 13 1013.0 1012.9 0.0
31/08:30am 26.6 26.5 17.9 59 5.5 ENE 15 22 8 12 1013.0 1012.9 0.0
31/08:00am 25.6 24.9 18.3 64 4.6 NE 19 33 10 18 1012.4 1012.3 0.0
31/07:30am 24.5 24.5 18.9 71 3.6 NE 17 24 9 13 1012.3 1012.2 0.0
31/07:00am 23.3 24.7 18.6 75 3.0 NNE 9 15 5 8 1012.1 1012.0 0.0
31/06:30am 22.4 24.2 18.4 78 2.5 ENE 6 9 3 5 1012.0 1011.9 0.0
31/06:00am 22.2 24.0 18.2 78 2.5 NE 6 9 3 5 1011.7 1011.6 0.0
31/05:30am 22.6 24.4 18.4 77 2.6 NE 6 9 3 5 1011.5 1011.4 0.0
31/05:00am 22.9 24.7 18.2 75 2.9 NE 6 9 3 5 1011.6 1011.5 0.0
31/04:30am 23.5 24.8 18.4 73 3.2 NNE 9 13 5 7 1011.3 1011.2 0.0
31/04:00am 23.8 25.1 18.4 72 3.4 NNE 9 11 5 6 1011.2 1011.1 0.0
31/03:30am 24.3 25.7 18.7 71 3.6 NNE 9 13 5 7 1011.0 1010.9 0.0
31/03:00am 24.8 25.7 19.2 71 3.6 NE 13 19 7 10 1010.8 1010.7 0.0
31/02:30am 25.0 27.2 21.9 83 2.1 NNE 13 22 7 12 1010.7 1010.6 0.0
31/02:00am 24.9 28.2 22.6 87 1.5 NNE 9 13 5 7 1010.7 1010.6 0.0
31/01:30am 25.1 28.9 22.8 87 1.6 NNE 7 13 4 7 1010.8 1010.7 0.0
31/01:00am 25.1 29.0 23.0 88 1.4 NNE 7 11 4 6 1010.9 1010.8 0.0
31/12:30am 24.5 28.1 22.4 88 1.4 NE 7 9 4 5 1011.0 1010.9 0.0
31/12:00am 24.2 27.8 22.3 89 1.3 NE 7 9 4 5 1011.0 1010.9 0.0
 
Date/Time
EST
Temp
°C
App
Temp
°C
Dew
Point
Rel
Hum
%
Delta-T
°C
Wind Press
QNH
hPa
Press
MSL
hPa
Rain
since 9 am
mm
Dir
 
Spd
km/h
Gust
km/h
Spd
kts
Gust
kts
30/11:30pm 24.6 29.5 22.3 87 1.5 CALM 0 0 0 0 1011.0 1010.9 0.0
30/11:00pm 25.0 28.9 22.5 86 1.7 NNE 6 7 3 4 1011.1 1011.0 0.0
30/10:30pm 25.2 28.6 22.7 86 1.7 NNE 9 13 5 7 1011.1 1011.0 0.0
30/10:00pm 25.1 28.7 22.4 85 1.8 N 7 9 4 5 1010.6 1010.5 0.0
30/09:30pm 25.8 30.1 22.7 83 2.1 WNW 4 6 2 3 1010.1 1010.0 0.0
30/09:00pm 25.9 29.6 22.6 82 2.2 W 7 9 4 5 1009.6 1009.5 0.0
30/08:30pm 26.1 29.7 22.4 80 2.5 W 7 11 4 6 1009.3 1009.2 0.0
30/08:00pm 26.5 29.3 22.3 78 2.8 WSW 11 17 6 9 1009.0 1008.9 0.0
30/07:30pm 26.9 29.1 21.9 74 3.3 WSW 13 19 7 10 1008.8 1008.7 0.0
30/07:00pm 27.6 29.1 21.2 68 4.3 W 15 20 8 11 1008.4 1008.3 0.0
30/06:30pm 28.4 29.5 20.4 62 5.3 W 15 20 8 11 1007.9 1007.8 0.0
30/06:00pm 29.9 30.9 20.2 56 6.4 W 15 20 8 11 1007.7 1007.6 0.0
30/05:30pm 30.9 30.8 19.6 51 7.4 W 19 24 10 13 1007.4 1007.3 0.0
30/05:00pm 31.9 31.6 19.5 47 8.2 W 20 24 11 13 1007.2 1007.1 0.0
30/04:30pm 32.7 31.9 18.5 43 9.2 WNW 20 24 11 13 1007.1 1007.0 0.0
30/04:00pm 33.4 32.5 18.3 40 9.8 W 20 28 11 15 1007.2 1007.1 0.0
30/03:30pm 34.5 33.6 17.7 37 10.8 WSW 19 26 10 14 1007.2 1007.1 0.0
30/03:00pm 37.4 35.6 10.7 20 15.8 ENE 11 13 6 7 1007.5 1007.4 0.0
30/02:30pm 36.8 34.1 11.6 22 15.0 SE 17 22 9 12 1007.9 1007.8 0.0
30/02:00pm 36.4 34.5 11.9 23 14.7 E 13 22 7 12 1008.3 1008.2 0.0
30/01:30pm 36.9 35.4 13.0 24 14.6 ESE 13 24 7 13 1008.9 1008.8 0.0
30/01:00pm 35.5 34.4 13.1 26 13.6 SE 11 15 6 8 1009.6 1009.5 0.0
30/12:30pm 35.0 33.9 13.2 27 13.2 ENE 11 20 6 11 1010.4 1010.3 0.0
30/12:00pm 34.3 33.6 14.2 29 12.4 E 11 20 6 11 1011.1 1011.0 0.0
30/11:30am 33.5 33.1 14.0 30 11.9 E 9 24 5 13 1011.6 1011.5 0.0
30/11:00am 32.2 31.5 14.3 33 10.9 NE 11 19 6 10 1012.0 1011.9 0.0
30/10:30am 30.6 30.2 15.1 39 9.5 ENE 11 17 6 9 1012.3 1012.2 0.0
30/10:00am 29.3 29.1 15.8 44 8.3 ENE 11 17 6 9 1012.7 1012.6 0.0
30/09:30am 28.0 27.5 16.9 51 6.9 E 15 20 8 11 1013.0 1012.9 0.0
30/09:00am 27.5 27.9 18.2 57 5.9 NE 13 17 7 9 1013.3 1013.2 0.0
30/08:30am 26.3 26.8 18.4 61 5.0 NNE 13 20 7 11 1013.3 1013.2 0.0
30/08:00am 24.9 24.2 18.3 66 4.2 NE 19 26 10 14 1013.0 1012.9 0.0
30/07:30am 24.1 24.7 18.5 71 3.5 NE 13 22 7 12 1013.1 1013.0 0.0
30/07:00am 22.9 23.4 18.4 76 2.8 NE 13 20 7 11 1012.4 1012.3 0.0
30/06:30am 22.3 23.3 18.7 80 2.3 NNE 11 19 6 10 1012.1 1012.0 0.0
30/06:00am 22.3 23.9 19.1 82 2.0 NE 9 15 5 8 1012.0 1011.9 0.0
30/05:30am 22.4 25.0 20.5 89 1.2 ENE 7 11 4 6 1011.8 1011.7 0.0
30/05:00am 22.6 25.6 20.9 90 1.1 E 6 7 3 4 1011.4 1011.3 0.0
30/04:30am 23.0 26.2 21.3 90 1.1 E 6 9 3 5 1011.1 1011.0 0.0
30/04:00am 23.1 26.4 21.5 91 1.1 NE 6 9 3 5 1010.8 1010.7 0.0
30/03:30am 23.2 26.6 21.6 91 1.1 NE 6 9 3 5 1010.9 1010.8 0.0
30/03:00am 23.2 26.6 21.6 91 1.1 NE 6 9 3 5 1011.0 1010.9 0.0
30/02:30am 23.2 26.6 21.6 91 1.1 NE 6 9 3 5 1011.0 1010.9 0.0
30/02:00am 23.3 26.5 21.7 91 1.1 NE 7 9 4 5 1011.2 1011.1 0.0
30/01:30am 23.3 26.5 21.6 90 1.1 NE 7 9 4 5 1011.5 1011.4 0.0
30/01:00am 23.4 26.6 21.7 90 1.1 NE 7 9 4 5 1011.8 1011.7 0.0
30/12:30am 23.6 26.8 21.7 89 1.3 NE 7 7 4 4 1012.0 1011.9 0.0
30/12:00am 24.0 27.6 22.1 89 1.3 ENE 6 9 3 5 1012.1 1012.0 0.0
 
Date/Time
EST
Temp
°C
App
Temp
°C
Dew
Point
Rel
Hum
%
Delta-T
°C
Wind Press
QNH
hPa
Press
MSL
hPa
Rain
since 9 am
mm
Dir
 
Spd
km/h
Gust
km/h
Spd
kts
Gust
kts
29/11:30pm 24.2 27.8 22.1 88 1.4 NE 6 9 3 5 1012.0 1011.9 0.0
29/11:00pm 24.3 27.9 22.0 87 1.5 NNE 6 9 3 5 1011.9 1011.8 0.0
29/10:30pm 24.3 27.3 22.0 87 1.5 N 9 13 5 7 1011.7 1011.6 0.0
29/10:00pm 24.8 29.6 22.1 85 1.8 CALM 0 0 0 0 1011.0 1010.9 0.0
29/09:30pm 25.1 28.7 22.0 83 2.1 WNW 6 7 3 4 1010.7 1010.6 0.0
29/09:00pm 25.5 29.1 22.0 81 2.3 NW 6 9 3 5 1010.7 1010.6 0.0
29/08:30pm 25.9 29.3 22.0 79 2.6 WNW 7 9 4 5 1010.6 1010.5 0.0
29/08:00pm 26.1 28.4 22.0 78 2.7 W 13 17 7 9 1010.4 1010.3 0.0
29/07:30pm 26.8 29.3 21.8 74 3.3 WNW 11 15 6 8 1010.1 1010.0 0.0
29/07:00pm 27.2 28.8 21.5 71 3.8 W 15 20 8 11 1010.0 1009.9 0.0
29/06:30pm 28.3 29.2 20.8 63 5.0 W 17 20 9 11 1009.6 1009.5 0.0
29/06:00pm 29.6 30.6 20.2 57 6.2 W 15 20 8 11 1009.3 1009.2 0.0
29/05:30pm 30.8 31.3 20.1 53 7.1 W 17 24 9 13 1009.1 1009.0 0.0
29/05:00pm 31.1 30.7 19.4 49 7.7 W 20 22 11 12 1008.8 1008.7 0.0
29/04:30pm 32.1 31.9 19.7 48 8.2 W 20 28 11 15 1008.8 1008.7 0.0
29/04:00pm 32.0 31.4 18.9 45 8.5 W 20 28 11 15 1008.8 1008.7 0.0
29/03:30pm 32.6 32.0 18.8 44 9.0 W 20 30 11 16 1008.9 1008.8 0.0
29/03:00pm 34.4 32.9 17.6 37 10.8 W 22 30 12 16 1008.8 1008.7 0.0
29/02:30pm 34.4 32.0 16.3 34 11.5 WNW 24 30 13 16 1009.1 1009.0 0.0
29/02:00pm 36.9 34.6 11.7 22 15.1 ESE 15 20 8 11 1009.5 1009.4 0.0
29/01:30pm 35.7 34.1 11.4 23 14.4 SSE 11 19 6 10 1010.1 1010.0 0.0
29/01:00pm 35.7 35.2 12.0 24 14.2 N 6 11 3 6 1010.8 1010.7 0.0
29/12:30pm 34.0 32.7 12.4 27 12.9 S 11 20 6 11 1011.3 1011.2 0.0
29/12:00pm 33.3 33.2 13.9 31 11.8 S 7 20 4 11 1012.0 1011.9 0.0
29/11:30am 32.2 32.0 15.7 37 10.3 E 11 17 6 9 1012.6 1012.5 0.0
29/11:00am 31.3 32.4 15.7 39 9.7 W 4 11 2 6 1013.1 1013.0 0.0
29/10:30am 30.6 31.1 16.6 43 8.8 ESE 9 15 5 8 1013.4 1013.3 0.0
29/10:00am 29.9 31.0 17.0 45 8.1 SSE 7 11 4 6 1013.8 1013.7 0.0
29/09:30am 28.4 29.2 16.3 47 7.5 ENE 7 11 4 6 1014.1 1014.0 0.0
29/09:00am 27.6 28.2 16.9 52 6.7 NE 9 15 5 8 1014.1 1014.0 0.0
29/08:30am 26.8 27.4 17.6 57 5.8 NE 11 17 6 9 1013.8 1013.7 0.0
29/08:00am 25.5 25.8 17.9 63 4.8 NE 13 19 7 10 1013.6 1013.5 0.0
29/07:30am 23.8 24.1 17.8 69 3.7 NNE 13 20 7 11 1013.2 1013.1 0.0
29/07:00am 22.7 23.7 17.8 74 3.0 NE 9 17 5 9 1013.1 1013.0 0.0
29/06:30am 21.7 22.8 17.9 79 2.4 NE 9 15 5 8 1012.8 1012.7 0.0
29/06:00am 21.4 22.8 17.8 80 2.2 NE 7 13 4 7 1012.4 1012.3 0.0
29/05:30am 21.5 22.6 17.9 80 2.2 NE 9 15 5 8 1012.2 1012.1 0.0
29/05:00am 21.5 23.3 18.3 82 2.0 NE 6 9 3 5 1012.0 1011.9 0.0
29/04:30am 21.6 23.4 19.5 88 1.3 NNE 9 15 5 8 1011.5 1011.4 0.0
29/04:00am 20.8 23.8 19.3 91 0.9 NE 2 7 1 4 1011.6 1011.5 0.0
29/03:30am 20.9 23.2 19.4 91 1.0 NE 6 7 3 4 1011.3 1011.2 0.0
29/03:00am 20.9 23.0 19.4 91 1.0 NE 7 7 4 4 1011.1 1011.0 0.0
29/02:30am 21.3 24.4 19.6 90 1.1 NE 2 7 1 4 1011.3 1011.2 0.0
29/02:00am 21.7 25.1 19.4 87 1.5 CALM 0 0 0 0 1011.3 1011.2 0.0
29/01:30am 21.8 24.1 19.5 87 1.5 NE 6 7 3 4 1011.2 1011.1 0.0
29/01:00am 22.3 24.8 20.2 88 1.4 NE 7 11 4 6 1011.3 1011.2 0.0
29/12:30am 22.3 24.6 19.8 86 1.6 NE 7 9 4 5 1011.5 1011.4 0.0
29/12:00am 22.6 26.2 19.8 84 1.8 CALM 0 0 0 0 1011.5 1011.4 0.0
 
Date/Time
EST
Temp
°C
App
Temp
°C
Dew
Point
Rel
Hum
%
Delta-T
°C
Wind Press
QNH
hPa
Press
MSL
hPa
Rain
since 9 am
mm
Dir
 
Spd
km/h
Gust
km/h
Spd
kts
Gust
kts
28/11:30pm 23.0 26.7 20.0 83 1.9 CALM 0 0 0 0 1011.9 1011.8 0.0
28/11:00pm 23.6 27.4 20.1 81 2.3 CALM 0 6 0 3 1011.9 1011.8 0.0
28/10:30pm 24.1 26.7 20.4 80 2.4 NNE 7 9 4 5 1012.1 1012.0 0.0
28/10:00pm 24.1 26.2 20.2 79 2.5 NNE 9 13 5 7 1012.0 1011.9 0.0
28/09:30pm 24.8 27.9 20.3 76 2.9 WNW 4 7 2 4 1011.1 1011.0 0.0
28/09:00pm 25.1 27.9 20.4 75 3.1 W 6 7 3 4 1010.9 1010.8 0.0
28/08:30pm 25.4 27.8 20.0 72 3.5 W 7 11 4 6 1010.8 1010.7 0.0
28/08:00pm 25.9 27.4 19.8 69 4.0 W 11 13 6 7 1010.4 1010.3 0.0
28/07:30pm 26.5 27.2 18.9 63 4.9 W 13 22 7 12 1010.2 1010.1 0.0
28/07:00pm 27.2 27.8 18.5 59 5.6 W 13 17 7 9 1010.2 1010.1 0.0
28/06:30pm 28.2 27.8 18.0 54 6.5 WSW 17 24 9 13 1009.8 1009.7 0.0
28/06:00pm 29.3 28.7 17.5 49 7.5 WSW 17 26 9 14 1009.8 1009.7 0.0
28/05:30pm 30.2 28.4 16.9 44 8.4 WSW 22 30 12 16 1009.3 1009.2 0.0

Other Formats:

Comma delimited format used in spreadsheet applications
http://www.bom.gov.au/fwo/IDQ60801/IDQ60801.94268.axf

JavaScript Object Notation format (JSON) in row-major order
http://www.bom.gov.au/fwo/IDQ60801/IDQ60801.94268.json